| time (UTC) | temp C | wind direction | speed KPH | gust KPH | rain 1hr cm | rain 24hr cm | rain mn cm | humidity % | barometer mb |
| 20260505223531 | 12 | 89 | 0.0 | 0.0 | 0.00 | 0.00 | 0.00 | 97 | 1011.4 |
| 20260505223028 | 12 | 89 | 0.0 | 0.0 | 0.00 | 0.00 | 0.00 | 97 | 1011.4 |
| 20260505222530 | 12 | 89 | 0.0 | 0.0 | 0.00 | 0.00 | 0.00 | 97 | 1011.4 |
| 20260505222023 | 12 | 89 | 0.0 | 0.0 | 0.00 | 0.00 | 0.00 | 97 | 1011.4 |
| 20260505221526 | 12 | 89 | 0.0 | 0.0 | 0.00 | 0.00 | 0.00 | 97 | 1011.3 |
| 20260505221027 | 12 | 89 | 0.0 | 0.0 | 0.00 | 0.00 | 0.00 | 97 | 1011.4 |
| 20260505220525 | 12 | 89 | 0.0 | 0.0 | 0.00 | 0.00 | 0.00 | 97 | 1011.3 |
| 20260505220033 | 12 | 89 | 0.0 | 0.0 | 0.00 | 0.00 | 0.00 | 97 | 1011.4 |
| 20260505215537 | 12 | 89 | 0.0 | 0.0 | 0.00 | 0.00 | 0.03 | 97 | 1011.4 |
| 20260505215029 | 12 | 88 | 0.0 | 0.0 | 0.00 | 0.00 | 0.03 | 97 | 1011.4 |
| 20260505214023 | 12 | 90 | 0.0 | 0.0 | 0.00 | 0.00 | 0.03 | 97 | 1011.5 |
| 20260505213553 | 12 | 90 | 0.0 | 0.0 | 0.00 | 0.00 | 0.03 | 97 | 1011.6 |
| 20260505212535 | 12 | 90 | 0.0 | 0.0 | 0.00 | 0.00 | 0.03 | 97 | 1011.8 |
| 20260505212024 | 12 | 90 | 0.0 | 0.0 | 0.00 | 0.00 | 0.03 | 96 | 1011.8 |
| 20260505211533 | 12 | 90 | 0.0 | 0.0 | 0.00 | 0.00 | 0.03 | 97 | 1011.9 |
| 20260505210521 | 12 | 75 | 0.0 | 0.0 | 0.00 | 0.00 | 0.03 | 96 | 1012.0 |
| 20260505210027 | 12 | 78 | 0.0 | 0.0 | 0.00 | 0.00 | 0.03 | 96 | 1012.1 |
| 20260505205530 | 12 | 78 | 0.0 | 0.0 | 0.00 | 0.00 | 0.03 | 96 | 1012.2 |
| 20260505205029 | 12 | 78 | 0.0 | 0.0 | 0.00 | 0.00 | 0.03 | 96 | 1012.2 |
| 20260505204028 | 12 | 78 | 0.0 | 0.0 | 0.00 | 0.00 | 0.03 | 96 | 1012.2 |
| 20260505203522 | 12 | 78 | 0.0 | 0.0 | 0.00 | 0.00 | 0.03 | 96 | 1012.2 |
| 20260505203026 | 12 | 78 | 0.0 | 0.0 | 0.00 | 0.00 | 0.03 | 96 | 1012.2 |
| 20260505202534 | 12 | 78 | 0.0 | 0.0 | 0.00 | 0.00 | 0.03 | 96 | 1012.2 |
| 20260505202023 | 12 | 78 | 0.0 | 0.0 | 0.00 | 0.00 | 0.03 | 96 | 1012.2 |
| 20260505201521 | 12 | 78 | 0.0 | 0.0 | 0.00 | 0.00 | 0.03 | 96 | 1012.2 |
| 20260505201031 | 12 | 78 | 0.0 | 0.0 | 0.00 | 0.00 | 0.03 | 96 | 1012.2 |
| 20260505200535 | 12 | 78 | 0.0 | 0.0 | 0.00 | 0.00 | 0.03 | 96 | 1012.2 |
| 20260505195534 | 12 | 78 | 0.0 | 0.0 | 0.00 | 0.00 | 0.03 | 96 | 1012.1 |
| 20260505195037 | 12 | 78 | 0.0 | 0.0 | 0.00 | 0.00 | 0.03 | 96 | 1012.1 |
| 20260505194525 | 12 | 78 | 0.0 | 0.0 | 0.00 | 0.00 | 0.03 | 96 | 1012.0 |
| 20260505193046 | 12 | 78 | 0.0 | 0.0 | 0.00 | 0.00 | 0.03 | 96 | 1011.9 |
| 20260505192521 | 12 | 78 | 0.0 | 0.0 | 0.00 | 0.00 | 0.03 | 96 | 1011.8 |
| 20260505192033 | 12 | 78 | 0.0 | 0.0 | 0.00 | 0.00 | 0.03 | 96 | 1011.8 |
| 20260505191543 | 12 | 78 | 0.0 | 0.0 | 0.00 | 0.00 | 0.03 | 96 | 1011.8 |
| 20260505191023 | 12 | 78 | 0.0 | 0.0 | 0.00 | 0.00 | 0.03 | 96 | 1011.7 |
| 20260505190533 | 12 | 78 | 0.0 | 0.0 | 0.00 | 0.00 | 0.03 | 96 | 1011.6 |
| 20260505190023 | 12 | 78 | 0.0 | 0.0 | 0.00 | 0.00 | 0.03 | 96 | 1011.6 |
| 20260505185525 | 12 | 78 | 0.0 | 0.0 | 0.00 | 0.00 | 0.03 | 96 | 1011.6 |
| 20260505185035 | 12 | 88 | 0.0 | 0.0 | 0.00 | 0.00 | 0.03 | 96 | 1011.6 |
| 20260505184526 | 12 | 88 | 0.0 | 0.0 | 0.00 | 0.00 | 0.03 | 96 | 1011.7 |
| 20260505184038 | 12 | 88 | 0.0 | 0.0 | 0.00 | 0.00 | 0.03 | 96 | 1011.7 |
| 20260505183526 | 12 | 88 | 0.0 | 0.0 | 0.00 | 0.00 | 0.03 | 96 | 1011.7 |
| 20260505183025 | 12 | 88 | 0.0 | 0.0 | 0.00 | 0.00 | 0.03 | 96 | 1011.6 |
| 20260505182530 | 12 | 88 | 0.0 | 0.0 | 0.00 | 0.00 | 0.03 | 96 | 1011.6 |
| 20260505182034 | 12 | 88 | 0.0 | 0.0 | 0.00 | 0.00 | 0.03 | 96 | 1011.6 |
| 20260505181540 | 12 | 88 | 0.0 | 0.0 | 0.00 | 0.00 | 0.03 | 96 | 1011.6 |
| 20260505181024 | 12 | 88 | 0.0 | 0.0 | 0.00 | 0.00 | 0.03 | 96 | 1011.7 |
| 20260505180525 | 12 | 88 | 0.0 | 0.0 | 0.00 | 0.00 | 0.03 | 96 | 1011.7 |
| 20260505180037 | 12 | 88 | 0.0 | 0.0 | 0.00 | 0.00 | 0.03 | 96 | 1011.6 |
| 20260505175529 | 12 | 88 | 0.0 | 0.0 | 0.00 | 0.00 | 0.03 | 95 | 1011.6 |
| 20260505175031 | 12 | 88 | 0.0 | 0.0 | 0.00 | 0.00 | 0.03 | 95 | 1011.6 |
| 20260505174521 | 12 | 90 | 0.0 | 0.0 | 0.00 | 0.00 | 0.03 | 96 | 1011.5 |
| 20260505174025 | 12 | 90 | 0.0 | 0.0 | 0.00 | 0.00 | 0.03 | 96 | 1011.4 |
| 20260505173529 | 12 | 90 | 0.0 | 0.0 | 0.00 | 0.00 | 0.03 | 95 | 1011.6 |
| 20260505173030 | 12 | 90 | 0.0 | 0.0 | 0.00 | 0.00 | 0.03 | 95 | 1011.7 |
| 20260505172526 | 12 | 90 | 0.0 | 0.0 | 0.00 | 0.00 | 0.03 | 95 | 1011.7 |
| 20260505171521 | 12 | 89 | 0.0 | 0.0 | 0.00 | 0.00 | 0.03 | 96 | 1011.7 |
| 20260505171029 | 12 | 121 | 0.0 | 0.0 | 0.00 | 0.00 | 0.03 | 96 | 1011.7 |
| 20260505170533 | 12 | 95 | 0.0 | 0.0 | 0.00 | 0.00 | 0.03 | 96 | 1011.7 |
| 20260505170058 | 12 | 92 | 0.0 | 0.0 | 0.00 | 0.00 | 0.03 | 96 | 1011.6 |
| 20260505165522 | 12 | 87 | 0.0 | 0.0 | 0.00 | 0.00 | 0.03 | 96 | 1011.7 |
| 20260505165030 | 12 | 85 | 0.0 | 0.0 | 0.00 | 0.00 | 0.03 | 96 | 1011.7 |
| 20260505164534 | 12 | 84 | 0.0 | 0.0 | 0.00 | 0.00 | 0.03 | 96 | 1011.7 |
| 20260505164021 | 12 | 97 | 0.0 | 0.0 | 0.00 | 0.00 | 0.03 | 96 | 1011.7 |
| 20260505163530 | 12 | 78 | 0.0 | 0.0 | 0.00 | 0.00 | 0.03 | 96 | 1011.8 |
| 20260505163037 | 12 | 84 | 1.6 | 0.0 | 0.00 | 0.00 | 0.03 | 96 | 1011.8 |
| 20260505162528 | 12 | 104 | 1.6 | 0.0 | 0.00 | 0.00 | 0.03 | 96 | 1011.9 |
| 20260505162025 | 12 | 95 | 1.6 | 0.0 | 0.00 | 0.00 | 0.03 | 96 | 1011.9 |
| 20260505161534 | 12 | 96 | 1.6 | 0.0 | 0.00 | 0.00 | 0.03 | 96 | 1011.9 |
| 20260505161054 | 12 | 97 | 0.0 | 0.0 | 0.00 | 0.00 | 0.03 | 96 | 1011.9 |
| 20260505153032 | 12 | 96 | 1.6 | 0.0 | 0.00 | 0.00 | 0.03 | 96 | 1012.1 |
| 20260505152534 | 12 | 118 | 1.6 | 0.0 | 0.00 | 0.00 | 0.03 | 96 | 1012.1 |
| 20260505152045 | 12 | 71 | 0.0 | 0.0 | 0.00 | 0.00 | 0.03 | 96 | 1012.1 |
| 20260505151533 | 12 | 96 | 1.6 | 0.0 | 0.00 | 0.00 | 0.03 | 96 | 1012.1 |
| 20260505151022 | 12 | 69 | 1.6 | 0.0 | 0.00 | 0.00 | 0.03 | 95 | 1012.2 |
| 20260505150522 | 12 | 119 | 3.2 | 0.0 | 0.00 | 0.00 | 0.03 | 95 | 1012.2 |
| 20260505125023 | 12 | 88 | 0.0 | 0.0 | 0.00 | 0.00 | 0.03 | 94 | 1012.6 |
| 20260505124530 | 13 | 61 | 0.0 | 0.0 | 0.00 | 0.00 | 0.03 | 94 | 1012.6 |
| 20260505123532 | 13 | 84 | 1.6 | 0.0 | 0.00 | 0.00 | 0.03 | 94 | 1012.5 |
| 20260505123038 | 13 | 90 | 1.6 | 0.0 | 0.00 | 0.00 | 0.03 | 94 | 1012.6 |
| 20260505122540 | 13 | 94 | 1.6 | 0.0 | 0.00 | 0.00 | 0.03 | 94 | 1012.5 |
| 20260505122032 | 13 | 115 | 0.0 | 0.0 | 0.00 | 0.00 | 0.03 | 95 | 1012.4 |
| 20260505121521 | 13 | 101 | 0.0 | 0.0 | 0.00 | 0.00 | 0.03 | 95 | 1012.5 |
| 20260505121031 | 13 | 101 | 0.0 | 0.0 | 0.00 | 0.00 | 0.03 | 95 | 1012.6 |
| 20260505120524 | 12 | 101 | 0.0 | 0.0 | 0.00 | 0.00 | 0.03 | 95 | 1012.6 |
| 20260505120025 | 12 | 101 | 0.0 | 0.0 | 0.00 | 0.00 | 0.03 | 95 | 1012.6 |
| 20260505115032 | 12 | 92 | 0.0 | 0.0 | 0.00 | 0.00 | 0.03 | 94 | 1012.7 |
| 20260505114519 | 12 | 113 | 0.0 | 0.0 | 0.00 | 0.00 | 0.03 | 94 | 1012.8 |
| 20260505114029 | 13 | 113 | 0.0 | 0.0 | 0.00 | 0.00 | 0.03 | 94 | 1012.8 |
| 20260505113031 | 13 | 103 | 0.0 | 0.0 | 0.00 | 0.00 | 0.03 | 94 | 1012.8 |
| 20260505112518 | 13 | 103 | 0.0 | 0.0 | 0.00 | 0.00 | 0.03 | 94 | 1012.8 |
| 20260505112036 | 13 | 103 | 0.0 | 0.0 | 0.00 | 0.00 | 0.03 | 94 | 1012.7 |
| 20260505111522 | 13 | 103 | 0.0 | 0.0 | 0.00 | 0.00 | 0.03 | 94 | 1012.8 |
| 20260505111035 | 13 | 103 | 0.0 | 0.0 | 0.00 | 0.00 | 0.03 | 93 | 1012.8 |
| 20260505110527 | 13 | 103 | 0.0 | 0.0 | 0.00 | 0.00 | 0.03 | 94 | 1012.8 |
| 20260505102032 | 13 | 103 | 0.0 | 0.0 | 0.00 | 0.00 | 0.03 | 93 | 1012.8 |
| 20260505101537 | 13 | 103 | 0.0 | 0.0 | 0.00 | 0.00 | 0.03 | 91 | 1012.7 |
| 20260505101022 | 13 | 103 | 0.0 | 0.0 | 0.00 | 0.00 | 0.03 | 93 | 1012.8 |
| 20260505100019 | 13 | 103 | 0.0 | 0.0 | 0.00 | 0.00 | 0.03 | 93 | 1012.7 |
| 20260505095534 | 13 | 103 | 0.0 | 0.0 | 0.00 | 0.00 | 0.03 | 93 | 1012.8 |
| 20260505095038 | 13 | 103 | 0.0 | 0.0 | 0.00 | 0.00 | 0.03 | 94 | 1012.7 |
| 20260505094523 | 13 | 103 | 0.0 | 0.0 | 0.00 | 0.00 | 0.03 | 94 | 1012.6 |
| 20260505093523 | 12 | 103 | 0.0 | 0.0 | 0.00 | 0.00 | 0.03 | 93 | 1012.5 |
| 20260505093033 | 12 | 103 | 0.0 | 0.0 | 0.00 | 0.00 | 0.03 | 93 | 1012.6 |
| 20260505092525 | 12 | 103 | 0.0 | 0.0 | 0.00 | 0.00 | 0.03 | 93 | 1012.7 |
| 20260505092037 | 12 | 103 | 0.0 | 0.0 | 0.00 | 0.00 | 0.03 | 93 | 1012.7 |
| 20260505091523 | 12 | 103 | 0.0 | 0.0 | 0.00 | 0.00 | 0.03 | 93 | 1012.6 |
| 20260505091020 | 12 | 103 | 0.0 | 0.0 | 0.00 | 0.00 | 0.03 | 93 | 1012.5 |
| 20260505090529 | 12 | 103 | 0.0 | 0.0 | 0.00 | 0.00 | 0.03 | 93 | 1012.4 |
| 20260505090033 | 12 | 103 | 0.0 | 0.0 | 0.00 | 0.00 | 0.03 | 93 | 1012.3 |
| 20260505085541 | 12 | 103 | 0.0 | 0.0 | 0.00 | 0.00 | 0.03 | 93 | 1012.4 |
| 20260505085018 | 12 | 103 | 0.0 | 0.0 | 0.00 | 0.00 | 0.03 | 93 | 1012.5 |
| 20260505084523 | 12 | 103 | 0.0 | 0.0 | 0.00 | 0.00 | 0.03 | 93 | 1012.5 |
| 20260505084022 | 12 | 103 | 0.0 | 0.0 | 0.00 | 0.00 | 0.03 | 93 | 1012.4 |
| 20260505083038 | 12 | 103 | 0.0 | 0.0 | 0.00 | 0.00 | 0.03 | 94 | 1012.4 |
| 20260505082528 | 12 | 103 | 0.0 | 0.0 | 0.00 | 0.00 | 0.03 | 93 | 1012.5 |
| 20260505082025 | 12 | 103 | 0.0 | 0.0 | 0.00 | 0.00 | 0.03 | 94 | 1012.5 |
| 20260505081531 | 12 | 103 | 0.0 | 0.0 | 0.00 | 0.00 | 0.03 | 93 | 1012.5 |
| 20260505081026 | 12 | 103 | 0.0 | 0.0 | 0.00 | 0.00 | 0.03 | 94 | 1012.4 |
| 20260505080537 | 11 | 103 | 0.0 | 0.0 | 0.00 | 0.00 | 0.03 | 94 | 1012.4 |
| 20260505080021 | 11 | 121 | 0.0 | 0.0 | 0.00 | 0.00 | 0.03 | 94 | 1012.4 |
| 20260505075528 | 11 | 121 | 0.0 | 0.0 | 0.00 | 0.00 | 0.03 | 94 | 1012.3 |
| 20260505075111 | 11 | 121 | 1.6 | 0.0 | 0.00 | 0.00 | 0.03 | 94 | 1012.2 |
| 20260505074537 | 11 | 75 | 0.0 | 0.0 | 0.00 | 0.00 | 0.03 | 93 | 1012.2 |
| 20260505074036 | 11 | 73 | 0.0 | 0.0 | 0.00 | 0.00 | 0.03 | 93 | 1012.2 |
| 20260505073527 | 11 | 73 | 0.0 | 0.0 | 0.00 | 0.00 | 0.03 | 93 | 1012.2 |
| 20260505073033 | 11 | 73 | 0.0 | 0.0 | 0.00 | 0.00 | 0.03 | 92 | 1012.3 |
| 20260505072534 | 11 | 73 | 0.0 | 0.0 | 0.00 | 0.00 | 0.03 | 92 | 1012.3 |
| 20260505071522 | 12 | 73 | 0.0 | 0.0 | 0.00 | 0.00 | 0.03 | 91 | 1012.4 |
| 20260505071022 | 12 | 73 | 0.0 | 0.0 | 0.00 | 0.00 | 0.03 | 90 | 1012.5 |
| 20260505070531 | 12 | 89 | 0.0 | 0.0 | 0.00 | 0.00 | 0.03 | 92 | 1012.5 |
| 20260505070035 | 12 | 89 | 0.0 | 0.0 | 0.00 | 0.00 | 0.03 | 92 | 1012.6 |
| 20260505065527 | 12 | 89 | 0.0 | 0.0 | 0.00 | 0.00 | 0.03 | 92 | 1012.5 |
| 20260505065032 | 12 | 89 | 0.0 | 0.0 | 0.00 | 0.00 | 0.03 | 91 | 1012.5 |
| 20260505064533 | 12 | 89 | 0.0 | 0.0 | 0.00 | 0.00 | 0.03 | 91 | 1012.3 |
| 20260505064033 | 12 | 89 | 1.6 | 0.0 | 0.00 | 0.00 | 0.03 | 91 | 1012.2 |
| 20260505062530 | 12 | 89 | 0.0 | 0.0 | 0.00 | 0.00 | 0.03 | 89 | 1012.4 |
| 20260505061531 | 12 | 89 | 0.0 | 0.0 | 0.00 | 0.00 | 0.00 | 87 | 1012.3 |
| 20260505061024 | 12 | 89 | 0.0 | 0.0 | 0.00 | 0.00 | 0.00 | 86 | 1012.3 |
| 20260505060537 | 13 | 89 | 0.0 | 0.0 | 0.00 | 0.00 | 0.00 | 86 | 1012.2 |
| 20260505060029 | 13 | 89 | 0.0 | 0.0 | 0.00 | 0.00 | 0.00 | 86 | 1012.0 |
| 20260505055535 | 13 | 89 | 0.0 | 0.0 | 0.00 | 0.00 | 0.00 | 85 | 1012.0 |
| 20260505054519 | 13 | 89 | 0.0 | 0.0 | 0.00 | 0.00 | 0.00 | 84 | 1012.0 |
| 20260505054036 | 13 | 89 | 0.0 | 0.0 | 0.00 | 0.00 | 0.00 | 83 | 1012.0 |
| 20260505053537 | 13 | 89 | 0.0 | 0.0 | 0.00 | 0.00 | 0.00 | 82 | 1012.0 |
| 20260505053026 | 13 | 89 | 0.0 | 0.0 | 0.00 | 0.00 | 0.00 | 81 | 1011.8 |
| 20260505052533 | 13 | 89 | 0.0 | 0.0 | 0.00 | 0.00 | 0.00 | 82 | 1011.8 |
| 20260505052058 | 13 | 89 | 0.0 | 0.0 | 0.00 | 0.00 | 0.00 | 82 | 1011.8 |
| 20260505051540 | 13 | 88 | 0.0 | 0.0 | 0.00 | 0.00 | 0.00 | 84 | 1011.8 |
| 20260505051028 | 13 | 88 | 0.0 | 0.0 | 0.00 | 0.00 | 0.00 | 83 | 1011.6 |
| 20260505041531 | 12 | 271 | 0.0 | 0.0 | 0.00 | 0.00 | 0.00 | 81 | 1011.5 |
| 20260505041030 | 12 | 271 | 0.0 | 0.0 | 0.00 | 0.00 | 0.00 | 80 | 1011.5 |
| 20260505040023 | 12 | 271 | 0.0 | 0.0 | 0.00 | 0.00 | 0.00 | 79 | 1011.5 |
| 20260505035537 | 13 | 271 | 0.0 | 0.0 | 0.00 | 0.00 | 0.00 | 77 | 1011.4 |
| 20260505035033 | 13 | 271 | 0.0 | 0.0 | 0.00 | 0.00 | 0.00 | 77 | 1011.5 |
| 20260505034026 | 13 | 271 | 0.0 | 0.0 | 0.00 | 0.00 | 0.00 | 76 | 1011.5 |
| 20260505033534 | 13 | 271 | 0.0 | 0.0 | 0.00 | 0.00 | 0.00 | 76 | 1011.6 |
| 20260505033023 | 13 | 271 | 0.0 | 0.0 | 0.00 | 0.00 | 0.00 | 74 | 1011.7 |
| 20260505032523 | 13 | 271 | 0.0 | 0.0 | 0.00 | 0.00 | 0.00 | 73 | 1011.7 |
| 20260505032038 | 13 | 271 | 0.0 | 0.0 | 0.00 | 0.00 | 0.00 | 75 | 1011.7 |
| 20260505031527 | 13 | 271 | 0.0 | 0.0 | 0.00 | 0.00 | 0.00 | 73 | 1011.7 |
| 20260505031032 | 13 | 271 | 0.0 | 0.0 | 0.00 | 0.00 | 0.00 | 73 | 1011.8 |
| 20260505030526 | 13 | 271 | 0.0 | 0.0 | 0.00 | 0.00 | 0.00 | 72 | 1011.8 |
| 20260505030024 | 13 | 271 | 0.0 | 0.0 | 0.00 | 0.00 | 0.00 | 71 | 1011.9 |
| 20260505025530 | 13 | 271 | 0.0 | 0.0 | 0.00 | 0.00 | 0.00 | 71 | 1011.9 |
| 20260505025058 | 13 | 271 | 0.0 | 0.0 | 0.00 | 0.00 | 0.00 | 71 | 1011.9 |
| 20260505024518 | 13 | 271 | 0.0 | 0.0 | 0.00 | 0.00 | 0.00 | 72 | 1012.0 |
| 20260505023530 | 13 | 271 | 0.0 | 0.0 | 0.00 | 0.00 | 0.00 | 72 | 1012.0 |
| 20260505023021 | 13 | 271 | 0.0 | 0.0 | 0.00 | 0.00 | 0.00 | 72 | 1012.1 |
| 20260505022518 | 13 | 286 | 0.0 | 0.0 | 0.00 | 0.00 | 0.00 | 72 | 1012.1 |
| 20260505022037 | 13 | 286 | 1.6 | 0.0 | 0.00 | 0.00 | 0.00 | 71 | 1012.2 |
| 20260505021533 | 13 | 286 | 1.6 | 0.0 | 0.00 | 0.00 | 0.00 | 72 | 1012.3 |
| 20260505021030 | 13 | 286 | 1.6 | 0.0 | 0.00 | 0.00 | 0.00 | 71 | 1012.4 |
| 20260505020523 | 14 | 286 | 1.6 | 0.0 | 0.00 | 0.00 | 0.00 | 72 | 1012.4 |
| 20260505020037 | 14 | 263 | 1.6 | 0.0 | 0.00 | 0.00 | 0.00 | 71 | 1012.5 |
| 20260505015036 | 14 | 298 | 1.6 | 0.0 | 0.00 | 0.00 | 0.00 | 73 | 1012.4 |
| 20260505014025 | 13 | 290 | 1.6 | 0.0 | 0.00 | 0.00 | 0.00 | 76 | 1012.8 |
| 20260505013537 | 13 | 193 | 3.2 | 0.0 | 0.00 | 0.00 | 0.00 | 75 | 1013.0 |
| 20260505012537 | 13 | 273 | 1.6 | 0.0 | 0.00 | 0.00 | 0.00 | 77 | 1013.1 |
| 20260505012025 | 12 | 279 | 0.0 | 0.0 | 0.00 | 0.00 | 0.00 | 78 | 1013.1 |
| 20260505011527 | 12 | 292 | 0.0 | 0.0 | 0.00 | 0.00 | 0.00 | 80 | 1013.1 |
| 20260505011036 | 12 | 294 | 0.0 | 0.0 | 0.00 | 0.00 | 0.00 | 80 | 1013.2 |
| 20260505010527 | 12 | 294 | 0.0 | 0.0 | 0.00 | 0.00 | 0.00 | 80 | 1013.2 |
| 20260505010032 | 12 | 294 | 0.0 | 0.0 | 0.00 | 0.00 | 0.00 | 82 | 1013.2 |
| 20260505004030 | 12 | 294 | 0.0 | 0.0 | 0.00 | 0.00 | 0.00 | 82 | 1013.6 |
| 20260505003520 | 12 | 294 | 0.0 | 0.0 | 0.00 | 0.00 | 0.00 | 83 | 1013.7 |
| 20260505002525 | 11 | 294 | 0.0 | 0.0 | 0.00 | 0.00 | 0.00 | 84 | 1013.8 |
| 20260505002030 | 11 | 294 | 0.0 | 0.0 | 0.00 | 0.00 | 0.00 | 84 | 1013.8 |
| 20260505001521 | 11 | 294 | 0.0 | 0.0 | 0.00 | 0.00 | 0.00 | 83 | 1013.9 |
| 20260505001022 | 11 | 294 | 0.0 | 0.0 | 0.00 | 0.00 | 0.00 | 83 | 1014.0 |
| 20260505000529 | 11 | 294 | 0.0 | 0.0 | 0.00 | 0.00 | 0.00 | 82 | 1014.2 |
| 20260505000038 | 11 | 294 | 0.0 | 0.0 | 0.00 | 0.00 | 0.00 | 82 | 1014.2 |
| 20260504235604 | 11 | 294 | 0.0 | 0.0 | 0.00 | 0.00 | 0.00 | 82 | 1014.2 |
| 20260504235034 | 11 | 294 | 0.0 | 0.0 | 0.00 | 0.00 | 0.00 | 82 | 1014.3 |
| 20260504234520 | 11 | 294 | 0.0 | 0.0 | 0.00 | 0.00 | 0.00 | 82 | 1014.4 |
| 20260504234026 | 11 | 294 | 0.0 | 0.0 | 0.00 | 0.00 | 0.00 | 81 | 1014.4 |
| 20260504233527 | 11 | 294 | 0.0 | 0.0 | 0.00 | 0.00 | 0.00 | 81 | 1014.5 |
| 20260504233022 | 11 | 294 | 0.0 | 0.0 | 0.00 | 0.00 | 0.00 | 81 | 1014.5 |
| 20260504232526 | 11 | 294 | 0.0 | 0.0 | 0.00 | 0.00 | 0.00 | 81 | 1014.6 |
| 20260504230021 | 12 | 294 | 0.0 | 0.0 | 0.00 | 0.00 | 0.00 | 80 | 1014.8 |
| 20260504225020 | 12 | 294 | 0.0 | 0.0 | 0.00 | 0.00 | 0.00 | 79 | 1014.8 |